TGL66PC LFPG-LEBL

Flight info

Callsign TGL66PC
Flight time 1h 35m
Altitude 37000
Route ERIXU DCT ETAMO DCT VALKU DCT ATSUP DCT MINSO DCT DEGOL DCT PPG DCT ALBER
Aircraft A320/M-SDE3FGHIRWY/LB1

Departure

Time 2026-05-07 15:05
Airport Charles de Gaulle International Airport (LFPG)

Arrival

Time 2026-05-07 16:41
Airport Josep Tarradellas Barcelona-El Prat Airport (LEBL)
Time Latitude Longitude Altitude Speed Heading
2026-05-07 14:27 49.00328 2.58403 355 ft 0 kts 86°
2026-05-07 14:52 49.00327 2.58381 359 ft 3 kts 84°
2026-05-07 14:52 49.00324 2.58350 354 ft 3 kts 83°
2026-05-07 14:53 49.00322 2.58320 354 ft 3 kts 93°
2026-05-07 14:53 49.00325 2.58294 354 ft 3 kts 138°
2026-05-07 14:53 49.00330 2.58288 354 ft 0 kts 175°
2026-05-07 14:55 49.00321 2.58289 354 ft 4 kts 175°
2026-05-07 14:56 49.00286 2.58293 354 ft 5 kts 175°
2026-05-07 14:56 49.00255 2.58297 354 ft 4 kts 175°
2026-05-07 14:56 49.00228 2.58301 360 ft 4 kts 175°
2026-05-07 14:56 49.00191 2.58305 354 ft 7 kts 176°
2026-05-07 14:57 49.00131 2.58312 354 ft 10 kts 175°
2026-05-07 14:57 49.00056 2.58322 354 ft 10 kts 174°
2026-05-07 14:57 49.00016 2.58388 358 ft 9 kts 94°
2026-05-07 14:57 49.00021 2.58488 354 ft 10 kts 85°
2026-05-07 14:58 49.00027 2.58599 354 ft 11 kts 85°
2026-05-07 14:58 49.00024 2.58708 354 ft 10 kts 113°
2026-05-07 14:58 48.99969 2.58751 360 ft 8 kts 150°
2026-05-07 14:58 48.99949 2.58820 357 ft 7 kts 86°
2026-05-07 14:59 48.99953 2.58905 357 ft 12 kts 85°
2026-05-07 14:59 48.99961 2.59046 357 ft 14 kts 85°
2026-05-07 14:59 48.99968 2.59209 354 ft 16 kts 85°
2026-05-07 14:59 48.99979 2.59383 354 ft 18 kts 86°
2026-05-07 15:00 48.99987 2.59558 363 ft 17 kts 86°
2026-05-07 15:00 48.99997 2.59746 354 ft 19 kts 85°
2026-05-07 15:00 49.00008 2.59951 354 ft 20 kts 85°
2026-05-07 15:00 49.00018 2.60150 359 ft 20 kts 86°
2026-05-07 15:01 49.00024 2.60354 354 ft 14 kts 105°
2026-05-07 15:01 48.99964 2.60405 356 ft 9 kts 188°
2026-05-07 15:01 48.99946 2.60398 356 ft 0 kts 195°
2026-05-07 15:03 48.99918 2.60386 359 ft 11 kts 195°
2026-05-07 15:03 48.99850 2.60337 357 ft 11 kts 222°
2026-05-07 15:03 48.99836 2.60274 354 ft 0 kts 265°
2026-05-07 15:04 48.99819 2.59946 355 ft 70 kts 265°
2026-05-07 15:04 48.99761 2.58874 355 ft 130 kts 265°
2026-05-07 15:05 48.99677 2.57258 357 ft 175 kts 266°
2026-05-07 15:05 48.99570 2.55322 825 ft 186 kts 265°
2026-05-07 15:05 48.99445 2.53339 1543 ft 190 kts 265°
2026-05-07 15:05 48.99318 2.51320 2299 ft 193 kts 266°
2026-05-07 15:06 48.99201 2.49272 2821 ft 206 kts 266°
2026-05-07 15:06 48.99085 2.46935 3228 ft 227 kts 266°
2026-05-07 15:06 48.98965 2.44516 4028 ft 231 kts 266°
2026-05-07 15:06 48.98839 2.42098 4884 ft 233 kts 265°
2026-05-07 15:07 48.98708 2.39636 5671 ft 238 kts 265°
2026-05-07 15:07 48.98571 2.37109 5936 ft 239 kts 265°
2026-05-07 15:07 48.98432 2.34587 6011 ft 238 kts 265°
2026-05-07 15:07 48.98288 2.32048 6013 ft 238 kts 265°
2026-05-07 15:08 48.98149 2.29573 6025 ft 239 kts 265°
2026-05-07 15:08 48.98008 2.27026 6730 ft 241 kts 265°
2026-05-07 15:08 48.97867 2.24478 7583 ft 242 kts 264°
2026-05-07 15:08 48.97710 2.21874 8343 ft 250 kts 261°
2026-05-07 15:09 48.97030 2.19346 8698 ft 271 kts 231°
2026-05-07 15:09 48.95525 2.17588 9337 ft 280 kts 201°
2026-05-07 15:09 48.93599 2.17199 10081 ft 285 kts 174°
2026-05-07 15:09 48.91576 2.17540 10487 ft 304 kts 175°
2026-05-07 15:10 48.89418 2.17823 10709 ft 327 kts 176°
2026-05-07 15:10 48.87083 2.18081 11098 ft 343 kts 176°
2026-05-07 15:10 48.84679 2.18335 11770 ft 349 kts 177°
2026-05-07 15:10 48.82244 2.18588 12472 ft 353 kts 177°
2026-05-07 15:11 48.79778 2.18843 13179 ft 357 kts 178°
2026-05-07 15:11 48.77285 2.19097 13884 ft 361 kts 178°
2026-05-07 15:11 48.74768 2.19349 14521 ft 364 kts 178°
2026-05-07 15:11 48.72227 2.19599 15140 ft 368 kts 178°
2026-05-07 15:12 48.69661 2.19852 15767 ft 371 kts 178°
2026-05-07 15:12 48.67073 2.20111 16387 ft 374 kts 178°
2026-05-07 15:12 48.64462 2.20375 16991 ft 378 kts 178°
2026-05-07 15:12 48.61827 2.20643 17584 ft 381 kts 178°
2026-05-07 15:13 48.59168 2.20914 18180 ft 384 kts 178°
2026-05-07 15:13 48.56488 2.21186 18714 ft 388 kts 178°
2026-05-07 15:13 48.53782 2.21455 19220 ft 390 kts 178°
2026-05-07 15:13 48.51063 2.21724 19720 ft 393 kts 178°
2026-05-07 15:14 48.48328 2.21995 20231 ft 395 kts 178°
2026-05-07 15:14 48.45573 2.22267 20734 ft 398 kts 178°
2026-05-07 15:14 48.42800 2.22542 21225 ft 401 kts 178°
2026-05-07 15:14 48.40009 2.22822 21707 ft 403 kts 178°
2026-05-07 15:15 48.37198 2.23104 22186 ft 406 kts 178°
2026-05-07 15:15 48.34374 2.23386 22662 ft 408 kts 178°
2026-05-07 15:15 48.31533 2.23670 23130 ft 411 kts 178°
2026-05-07 15:15 48.28671 2.23956 23577 ft 413 kts 178°
2026-05-07 15:16 48.25792 2.24244 23952 ft 416 kts 178°
2026-05-07 15:16 48.22897 2.24534 24332 ft 418 kts 178°
2026-05-07 15:16 48.19987 2.24823 24699 ft 420 kts 178°
2026-05-07 15:16 48.17065 2.25110 25063 ft 422 kts 178°
2026-05-07 15:17 48.14126 2.25397 25423 ft 424 kts 178°
2026-05-07 15:17 48.11175 2.25686 25783 ft 426 kts 178°
2026-05-07 15:17 48.08254 2.25976 26134 ft 428 kts 178°
2026-05-07 15:17 48.05271 2.26241 26485 ft 430 kts 179°
2026-05-07 15:18 48.02279 2.26449 26837 ft 432 kts 180°
2026-05-07 15:18 47.99266 2.26624 27187 ft 434 kts 180°
2026-05-07 15:18 47.96244 2.26788 27515 ft 436 kts 180°
2026-05-07 15:18 47.93207 2.26953 27841 ft 438 kts 180°
2026-05-07 15:19 47.90159 2.27125 28168 ft 439 kts 180°
2026-05-07 15:19 47.87096 2.27306 28480 ft 441 kts 180°
2026-05-07 15:19 47.84021 2.27495 28779 ft 443 kts 180°
2026-05-07 15:19 47.80931 2.27694 29080 ft 445 kts 180°
2026-05-07 15:20 47.77832 2.27899 29361 ft 447 kts 180°
2026-05-07 15:20 47.74721 2.28104 29650 ft 449 kts 180°
2026-05-07 15:20 47.71605 2.28308 30048 ft 448 kts 180°
2026-05-07 15:20 47.68526 2.28504 30406 ft 447 kts 180°
2026-05-07 15:21 47.65408 2.28700 30755 ft 446 kts 180°
2026-05-07 15:21 47.62316 2.28893 31107 ft 445 kts 180°
2026-05-07 15:21 47.59227 2.29087 31450 ft 444 kts 180°
2026-05-07 15:21 47.56143 2.29283 31793 ft 443 kts 180°
2026-05-07 15:22 47.53068 2.29478 32132 ft 442 kts 180°
2026-05-07 15:22 47.49985 2.29670 32478 ft 441 kts 181°
2026-05-07 15:22 47.46921 2.29861 32816 ft 441 kts 181°
2026-05-07 15:22 47.43860 2.30054 33161 ft 440 kts 181°
2026-05-07 15:23 47.40806 2.30248 33508 ft 439 kts 181°
2026-05-07 15:23 47.37757 2.30440 33847 ft 438 kts 181°
2026-05-07 15:23 47.34713 2.30633 34150 ft 438 kts 181°
2026-05-07 15:23 47.31674 2.30824 34446 ft 437 kts 181°
2026-05-07 15:24 47.28639 2.31013 34725 ft 436 kts 181°
2026-05-07 15:24 47.25601 2.31200 34980 ft 436 kts 181°
2026-05-07 15:24 47.22562 2.31389 35231 ft 436 kts 181°
2026-05-07 15:24 47.19569 2.31577 35482 ft 436 kts 181°
2026-05-07 15:25 47.16532 2.31767 35721 ft 436 kts 181°
2026-05-07 15:25 47.13498 2.31954 35946 ft 436 kts 181°
2026-05-07 15:25 47.10457 2.32141 36189 ft 436 kts 181°
2026-05-07 15:25 47.07429 2.32324 36418 ft 436 kts 181°
2026-05-07 15:26 47.04397 2.32505 36648 ft 436 kts 181°
2026-05-07 15:26 47.01364 2.32687 36876 ft 435 kts 181°
2026-05-07 15:26 46.98336 2.32869 37000 ft 437 kts 181°
2026-05-07 15:26 46.95327 2.33052 37022 ft 438 kts 181°
2026-05-07 15:27 46.89235 2.33433 37015 ft 437 kts 181°
2026-05-07 15:27 46.83151 2.34464 37012 ft 443 kts 168°
2026-05-07 15:28 46.77375 2.37603 37010 ft 447 kts 162°
2026-05-07 15:28 46.71583 2.40957 37008 ft 447 kts 162°
2026-05-07 15:29 46.65795 2.44289 36999 ft 447 kts 162°
2026-05-07 15:29 46.60027 2.47612 37001 ft 447 kts 162°
2026-05-07 15:30 46.54251 2.50931 37006 ft 448 kts 162°
2026-05-07 15:30 46.48450 2.54250 37001 ft 447 kts 162°
2026-05-07 15:31 46.42658 2.57551 37011 ft 447 kts 162°
2026-05-07 15:31 46.36868 2.60851 37013 ft 447 kts 162°
2026-05-07 15:32 46.31081 2.64147 37011 ft 447 kts 162°
2026-05-07 15:32 46.25298 2.67429 37011 ft 446 kts 162°
2026-05-07 15:33 46.19512 2.70707 37008 ft 446 kts 162°
2026-05-07 15:33 46.13732 2.73971 37016 ft 446 kts 162°
2026-05-07 15:34 46.08931 2.76680 37007 ft 445 kts 162°
2026-05-07 15:34 46.03162 2.79930 37002 ft 445 kts 163°
2026-05-07 15:35 45.97386 2.83152 37003 ft 445 kts 163°
2026-05-07 15:35 45.91581 2.86224 37002 ft 444 kts 164°
2026-05-07 15:36 45.85766 2.89240 37006 ft 444 kts 164°
2026-05-07 15:36 45.79999 2.92246 37007 ft 444 kts 164°
2026-05-07 15:37 45.74126 2.94823 37008 ft 438 kts 175°
2026-05-07 15:37 45.68111 2.95105 36995 ft 432 kts 185°
2026-05-07 15:38 45.62105 2.94937 36996 ft 431 kts 184°
2026-05-07 15:38 45.56104 2.94790 36998 ft 431 kts 184°
2026-05-07 15:39 45.50101 2.94638 36991 ft 431 kts 184°
2026-05-07 15:39 45.44108 2.94472 36998 ft 431 kts 184°
2026-05-07 15:40 45.38118 2.94307 36997 ft 430 kts 184°
2026-05-07 15:40 45.32135 2.94152 36986 ft 430 kts 184°
2026-05-07 15:41 45.26155 2.93999 36988 ft 430 kts 184°
2026-05-07 15:41 45.20180 2.93841 36989 ft 429 kts 184°
2026-05-07 15:42 45.14206 2.93689 36976 ft 429 kts 184°
2026-05-07 15:42 45.08240 2.93531 36982 ft 429 kts 184°
2026-05-07 15:43 45.02280 2.93376 36981 ft 428 kts 184°
2026-05-07 15:43 44.96322 2.93220 36983 ft 428 kts 184°
2026-05-07 15:44 44.90407 2.93063 36981 ft 428 kts 184°
2026-05-07 15:44 44.84460 2.92908 36982 ft 427 kts 185°
2026-05-07 15:45 44.78525 2.92576 36982 ft 426 kts 186°
2026-05-07 15:45 44.72613 2.92080 36975 ft 426 kts 187°
2026-05-07 15:46 44.63727 2.91369 36974 ft 426 kts 186°
2026-05-07 15:47 44.57804 2.90934 36959 ft 426 kts 186°
2026-05-07 15:47 44.51885 2.90510 36967 ft 426 kts 186°
2026-05-07 15:48 44.46043 2.90099 36974 ft 408 kts 186°
2026-05-07 15:48 44.43262 2.89910 36973 ft 394 kts 186°
2026-05-07 15:48 44.40549 2.89720 36971 ft 388 kts 187°
2026-05-07 15:49 44.35181 2.89334 36976 ft 385 kts 187°
2026-05-07 15:49 44.29830 2.88948 36974 ft 385 kts 187°
2026-05-07 15:50 44.24484 2.88563 37005 ft 385 kts 187°
2026-05-07 15:50 44.19125 2.88187 37145 ft 386 kts 187°
2026-05-07 15:51 44.13760 2.87823 37385 ft 387 kts 187°
2026-05-07 15:51 44.11070 2.87644 37550 ft 387 kts 187°
2026-05-07 15:51 44.08375 2.87468 37746 ft 388 kts 187°
2026-05-07 15:51 44.05680 2.87295 37966 ft 388 kts 186°
2026-05-07 15:52 44.02985 2.87127 38161 ft 388 kts 186°
2026-05-07 15:52 43.97539 2.86816 37996 ft 392 kts 186°
2026-05-07 15:52 43.94822 2.86679 37856 ft 390 kts 186°
2026-05-07 15:53 43.92110 2.86540 37716 ft 389 kts 186°
2026-05-07 15:53 43.89411 2.86406 37571 ft 388 kts 186°
2026-05-07 15:53 43.86720 2.86277 37440 ft 386 kts 186°
2026-05-07 15:53 43.84040 2.86152 37092 ft 383 kts 186°
2026-05-07 15:54 43.81389 2.86036 36934 ft 380 kts 186°
2026-05-07 15:54 43.76094 2.85864 36964 ft 381 kts 185°
2026-05-07 15:55 43.70786 2.85890 36968 ft 381 kts 184°
2026-05-07 15:55 43.65480 2.85979 36967 ft 381 kts 184°
2026-05-07 15:56 43.60179 2.86042 36967 ft 381 kts 185°
2026-05-07 15:56 43.54903 2.86094 36966 ft 380 kts 185°
2026-05-07 15:57 43.49602 2.86135 36967 ft 379 kts 185°
2026-05-07 15:57 43.44314 2.86167 36970 ft 379 kts 185°
2026-05-07 15:58 43.39051 2.86217 36948 ft 379 kts 185°
2026-05-07 15:58 43.33787 2.86269 36966 ft 378 kts 185°
2026-05-07 15:59 43.28541 2.86306 36957 ft 377 kts 185°
2026-05-07 15:59 43.23304 2.86331 36956 ft 376 kts 185°
2026-05-07 16:00 43.18071 2.86379 36949 ft 376 kts 186°
2026-05-07 16:00 43.12883 2.86424 36965 ft 374 kts 186°
2026-05-07 16:01 43.07668 2.86467 36967 ft 374 kts 185°
2026-05-07 16:01 43.02466 2.86511 36962 ft 373 kts 186°
2026-05-07 16:02 42.97312 2.86547 36950 ft 372 kts 186°
2026-05-07 16:02 42.92123 2.86583 36518 ft 369 kts 185°
2026-05-07 16:02 42.89569 2.86608 36171 ft 365 kts 186°
2026-05-07 16:03 42.87035 2.86628 35770 ft 360 kts 186°
2026-05-07 16:03 42.84560 2.86650 35536 ft 352 kts 187°
2026-05-07 16:03 42.82129 2.86671 35217 ft 346 kts 187°
2026-05-07 16:03 42.79736 2.86694 34881 ft 341 kts 187°
2026-05-07 16:04 42.77409 2.86715 34547 ft 336 kts 188°
2026-05-07 16:04 42.75082 2.86713 34212 ft 329 kts 191°
2026-05-07 16:04 42.72832 2.86468 33863 ft 322 kts 193°
2026-05-07 16:04 42.70614 2.86201 33414 ft 319 kts 193°
2026-05-07 16:05 42.68407 2.85939 32903 ft 318 kts 192°
2026-05-07 16:05 42.66201 2.85679 32374 ft 318 kts 192°
2026-05-07 16:05 42.63992 2.85421 31850 ft 319 kts 192°
2026-05-07 16:05 42.61776 2.85160 31328 ft 320 kts 192°
2026-05-07 16:06 42.59554 2.84897 30817 ft 321 kts 191°
2026-05-07 16:06 42.57324 2.84634 30309 ft 322 kts 191°
2026-05-07 16:06 42.55087 2.84373 29795 ft 323 kts 191°
2026-05-07 16:06 42.52849 2.84113 29269 ft 323 kts 190°
2026-05-07 16:07 42.50611 2.83854 28784 ft 322 kts 190°
2026-05-07 16:07 42.48378 2.83595 28323 ft 321 kts 190°
2026-05-07 16:07 42.46166 2.83336 27865 ft 319 kts 190°
2026-05-07 16:07 42.43978 2.82933 27424 ft 315 kts 195°
2026-05-07 16:08 42.41849 2.82401 26981 ft 314 kts 194°
2026-05-07 16:08 42.39701 2.81868 26541 ft 313 kts 194°
2026-05-07 16:08 42.37557 2.81343 26106 ft 312 kts 194°
2026-05-07 16:08 42.35425 2.80822 25714 ft 309 kts 194°
2026-05-07 16:09 42.33307 2.80306 25328 ft 307 kts 194°
2026-05-07 16:09 42.31208 2.79791 24937 ft 306 kts 194°
2026-05-07 16:09 42.29134 2.79282 24537 ft 305 kts 193°
2026-05-07 16:09 42.27042 2.78766 24135 ft 305 kts 193°
2026-05-07 16:10 42.24960 2.78256 23712 ft 305 kts 193°
2026-05-07 16:10 42.22821 2.77731 22731 ft 320 kts 193°
2026-05-07 16:10 42.20576 2.77179 21707 ft 336 kts 192°
2026-05-07 16:10 42.18225 2.76599 20687 ft 351 kts 192°
2026-05-07 16:11 42.15814 2.75881 19999 ft 355 kts 200°
2026-05-07 16:11 42.13554 2.74562 19639 ft 354 kts 211°
2026-05-07 16:11 42.11555 2.72659 19231 ft 352 kts 222°
2026-05-07 16:11 42.09870 2.70281 18830 ft 351 kts 229°
2026-05-07 16:12 42.08258 2.67819 18431 ft 350 kts 229°
2026-05-07 16:12 42.06647 2.65365 18008 ft 349 kts 229°
2026-05-07 16:12 42.05042 2.62925 17602 ft 347 kts 229°
2026-05-07 16:12 42.03445 2.60497 17212 ft 346 kts 229°
2026-05-07 16:13 42.01853 2.58079 16813 ft 344 kts 229°
2026-05-07 16:13 42.00269 2.55674 16425 ft 343 kts 229°
2026-05-07 16:13 41.98694 2.53281 16034 ft 341 kts 229°
2026-05-07 16:13 41.97123 2.50900 15636 ft 340 kts 228°
2026-05-07 16:14 41.95557 2.48528 15250 ft 338 kts 228°
2026-05-07 16:14 41.94000 2.46173 14874 ft 336 kts 229°
2026-05-07 16:14 41.92452 2.43834 14490 ft 335 kts 228°
2026-05-07 16:14 41.90920 2.41526 14120 ft 335 kts 228°
2026-05-07 16:15 41.89369 2.39190 13732 ft 334 kts 228°
2026-05-07 16:15 41.87827 2.36864 13326 ft 333 kts 228°
2026-05-07 16:15 41.86294 2.34556 12941 ft 331 kts 228°
2026-05-07 16:15 41.84763 2.32254 12566 ft 331 kts 228°
2026-05-07 16:16 41.83232 2.29953 12188 ft 330 kts 228°
2026-05-07 16:16 41.81706 2.27663 11813 ft 329 kts 229°
2026-05-07 16:16 41.80187 2.25383 11439 ft 328 kts 228°
2026-05-07 16:16 41.78667 2.23113 11067 ft 327 kts 226°
2026-05-07 16:17 41.76945 2.21145 10697 ft 326 kts 214°
2026-05-07 16:17 41.74948 2.19738 10346 ft 323 kts 201°
2026-05-07 16:17 41.72841 2.18886 10215 ft 311 kts 195°
2026-05-07 16:17 41.70799 2.18118 10098 ft 299 kts 196°
2026-05-07 16:18 41.68819 2.17364 9877 ft 293 kts 196°
2026-05-07 16:18 41.66877 2.16624 9812 ft 290 kts 196°
2026-05-07 16:18 41.64936 2.15885 9745 ft 290 kts 196°
2026-05-07 16:18 41.62998 2.15149 9678 ft 289 kts 196°
2026-05-07 16:19 41.61063 2.14416 9611 ft 289 kts 195°
2026-05-07 16:19 41.59126 2.13685 9545 ft 289 kts 195°
2026-05-07 16:19 41.57192 2.12957 9476 ft 289 kts 195°
2026-05-07 16:19 41.55261 2.12228 9408 ft 288 kts 195°
2026-05-07 16:20 41.53382 2.11313 9340 ft 288 kts 208°
2026-05-07 16:20 41.51752 2.09779 9273 ft 288 kts 224°
2026-05-07 16:20 41.50488 2.07717 9205 ft 288 kts 238°
2026-05-07 16:20 41.49452 2.05433 9139 ft 288 kts 239°
2026-05-07 16:21 41.48412 2.03153 9082 ft 288 kts 238°
2026-05-07 16:21 41.47369 2.00879 8994 ft 287 kts 238°
2026-05-07 16:21 41.46324 1.98607 8917 ft 287 kts 238°
2026-05-07 16:21 41.45280 1.96339 8839 ft 287 kts 238°
2026-05-07 16:22 41.44234 1.94070 8757 ft 287 kts 238°
2026-05-07 16:22 41.43540 1.92562 8704 ft 287 kts 238°
2026-05-07 16:22 41.42498 1.90298 8625 ft 286 kts 238°
2026-05-07 16:22 41.41461 1.88039 8548 ft 286 kts 238°
2026-05-07 16:23 41.40422 1.85778 8461 ft 286 kts 238°
2026-05-07 16:23 41.39384 1.83521 8382 ft 286 kts 238°
2026-05-07 16:23 41.38346 1.81268 8304 ft 285 kts 238°
2026-05-07 16:23 41.37306 1.79019 8217 ft 285 kts 238°
2026-05-07 16:24 41.36273 1.76789 8141 ft 278 kts 237°
2026-05-07 16:24 41.35201 1.74727 8016 ft 265 kts 223°
2026-05-07 16:24 41.33697 1.73472 7853 ft 252 kts 195°
2026-05-07 16:24 41.32008 1.73313 7772 ft 243 kts 167°
2026-05-07 16:25 41.30428 1.74070 7658 ft 243 kts 154°
2026-05-07 16:25 41.28877 1.74967 7500 ft 243 kts 161°
2026-05-07 16:25 41.27205 1.75075 7345 ft 245 kts 194°
2026-05-07 16:25 41.25738 1.73955 7179 ft 248 kts 227°
2026-05-07 16:26 41.24871 1.71992 7049 ft 249 kts 245°
2026-05-07 16:26 41.24161 1.69887 6875 ft 250 kts 244°
2026-05-07 16:26 41.23442 1.67783 6721 ft 250 kts 244°
2026-05-07 16:26 41.22719 1.65679 6582 ft 251 kts 244°
2026-05-07 16:27 41.21995 1.63573 6439 ft 251 kts 244°
2026-05-07 16:27 41.21274 1.61476 6287 ft 249 kts 243°
2026-05-07 16:27 41.20552 1.59379 6090 ft 250 kts 244°
2026-05-07 16:27 41.19827 1.57276 5733 ft 249 kts 244°
2026-05-07 16:28 41.19090 1.55250 5595 ft 236 kts 235°
2026-05-07 16:28 41.17990 1.53725 5471 ft 224 kts 211°
2026-05-07 16:28 41.16597 1.52968 5344 ft 212 kts 186°
2026-05-07 16:28 41.15176 1.52997 5233 ft 198 kts 165°
2026-05-07 16:29 41.13956 1.53671 5111 ft 184 kts 144°
2026-05-07 16:29 41.13051 1.54783 4980 ft 173 kts 126°
2026-05-07 16:29 41.12502 1.56125 4854 ft 165 kts 109°
2026-05-07 16:29 41.12293 1.57578 4726 ft 157 kts 92°
2026-05-07 16:30 41.12411 1.58975 4622 ft 147 kts 77°
2026-05-07 16:30 41.12795 1.60204 4494 ft 143 kts 62°
2026-05-07 16:30 41.13319 1.61318 4367 ft 142 kts 59°
2026-05-07 16:30 41.13854 1.62414 4235 ft 141 kts 62°
2026-05-07 16:31 41.14327 1.63547 4109 ft 140 kts 65°
2026-05-07 16:31 41.14767 1.64705 3986 ft 141 kts 66°
2026-05-07 16:31 41.15189 1.65866 3857 ft 139 kts 68°
2026-05-07 16:31 41.15600 1.67024 3743 ft 137 kts 69°
2026-05-07 16:32 41.16005 1.68175 3603 ft 139 kts 67°
2026-05-07 16:32 41.16411 1.69338 3480 ft 139 kts 67°
2026-05-07 16:32 41.16816 1.70501 3369 ft 138 kts 69°
2026-05-07 16:32 41.17218 1.71657 3230 ft 138 kts 68°
2026-05-07 16:33 41.17617 1.72803 3122 ft 135 kts 68°
2026-05-07 16:33 41.18017 1.73957 3061 ft 137 kts 68°
2026-05-07 16:33 41.18418 1.75113 2999 ft 139 kts 67°
2026-05-07 16:33 41.18820 1.76272 3001 ft 138 kts 68°
2026-05-07 16:34 41.19222 1.77430 2993 ft 138 kts 68°
2026-05-07 16:34 41.19622 1.78586 2996 ft 138 kts 67°
2026-05-07 16:34 41.20023 1.79741 2991 ft 138 kts 67°
2026-05-07 16:34 41.20426 1.80907 2992 ft 139 kts 67°
2026-05-07 16:35 41.20829 1.82070 2995 ft 138 kts 67°
2026-05-07 16:35 41.21231 1.83231 2994 ft 138 kts 68°
2026-05-07 16:35 41.21631 1.84387 2990 ft 139 kts 69°
2026-05-07 16:35 41.22031 1.85546 2993 ft 139 kts 68°
2026-05-07 16:36 41.22435 1.86713 2999 ft 138 kts 68°
2026-05-07 16:36 41.22835 1.87873 3006 ft 139 kts 69°
2026-05-07 16:36 41.23235 1.89032 2904 ft 137 kts 69°
2026-05-07 16:36 41.23634 1.90188 2763 ft 138 kts 68°
2026-05-07 16:37 41.24034 1.91347 2589 ft 138 kts 66°
2026-05-07 16:37 41.24431 1.92498 2419 ft 136 kts 69°
2026-05-07 16:37 41.24825 1.93641 2240 ft 135 kts 68°
2026-05-07 16:37 41.25216 1.94776 2064 ft 134 kts 68°
2026-05-07 16:38 41.25605 1.95906 1877 ft 134 kts 69°
2026-05-07 16:38 41.25993 1.97031 1697 ft 133 kts 69°
2026-05-07 16:38 41.26379 1.98152 1519 ft 133 kts 68°
2026-05-07 16:38 41.26771 1.99294 1338 ft 137 kts 69°
2026-05-07 16:39 41.27165 2.00440 1143 ft 135 kts 68°
2026-05-07 16:39 41.27556 2.01577 969 ft 133 kts 67°
2026-05-07 16:39 41.27939 2.02692 782 ft 131 kts 68°
2026-05-07 16:39 41.28317 2.03792 607 ft 134 kts 69°
2026-05-07 16:40 41.28698 2.04901 436 ft 131 kts 69°
2026-05-07 16:40 41.29076 2.06004 259 ft 131 kts 68°
2026-05-07 16:40 41.29488 2.07201 70 ft 131 kts 67°
2026-05-07 16:40 41.29826 2.08196 21 ft 116 kts 67°
2026-05-07 16:41 41.30091 2.08972 18 ft 68 kts 66°
2026-05-07 16:41 41.30219 2.09328 17 ft 18 kts 53°
2026-05-07 16:41 41.30265 2.09396 17 ft 8 kts 44°
2026-05-07 16:41 41.30306 2.09445 17 ft 8 kts 40°
2026-05-07 16:42 41.30344 2.09485 17 ft 6 kts 37°
2026-05-07 16:42 41.30372 2.09512 18 ft 4 kts 36°
2026-05-07 16:42 41.30427 2.09538 19 ft 17 kts 356°
2026-05-07 16:42 41.30461 2.09522 18 ft 0 kts 335°
2026-05-07 16:46 41.30462 2.09521 18 ft 2 kts 335°
2026-05-07 16:46 41.30502 2.09478 19 ft 9 kts 292°
2026-05-07 16:47 41.30491 2.09409 20 ft 7 kts 245°
2026-05-07 16:47 41.30471 2.09354 19 ft 6 kts 245°
2026-05-07 16:47 41.30456 2.09308 19 ft 5 kts 245°
2026-05-07 16:47 41.30442 2.09270 20 ft 7 kts 245°
2026-05-07 16:48 41.30410 2.09175 20 ft 13 kts 245°
2026-05-07 16:48 41.30371 2.09063 18 ft 13 kts 245°
2026-05-07 16:48 41.30336 2.08953 20 ft 11 kts 260°
2026-05-07 16:48 41.30363 2.08900 18 ft 7 kts 322°
2026-05-07 16:49 41.30368 2.08840 19 ft 7 kts 248°
2026-05-07 16:49 41.30348 2.08782 19 ft 7 kts 245°
2026-05-07 16:49 41.30330 2.08729 18 ft 6 kts 245°
2026-05-07 16:49 41.30313 2.08679 17 ft 7 kts 245°
2026-05-07 16:50 41.30291 2.08615 18 ft 8 kts 246°
2026-05-07 16:50 41.30267 2.08544 19 ft 9 kts 245°
2026-05-07 16:50 41.30252 2.08471 18 ft 8 kts 289°
2026-05-07 16:50 41.30291 2.08436 19 ft 6 kts 335°
2026-05-07 16:51 41.30322 2.08417 21 ft 4 kts 335°
2026-05-07 16:51 41.30340 2.08406 20 ft 2 kts 336°
2026-05-07 16:51 41.30363 2.08393 22 ft 5 kts 336°
2026-05-07 16:51 41.30398 2.08360 21 ft 7 kts 309°
2026-05-07 16:52 41.30407 2.08318 21 ft 3 kts 275°
2026-05-07 16:52 41.30407 2.08310 21 ft 0 kts 274°